EW9532 Weather Reports


time (UTC)temp
F
wind
direction
speed
knots
gust
knots
rain 1hr
in
rain 24hr
in
rain mn
in
humidity
%
barometer
mb
20260507090302 82 297 0.0 0.9 0.00 0.00 0.00 87 1011.1
20260507090047 82 297 0.0 0.0 0.00 0.00 0.00 86 1011.4
20260507085802 82 216 0.0 0.0 0.00 0.00 0.00 86 1011.1
20260507085524 82 216 0.0 0.0 0.00 0.00 0.00 86 1011.1
20260507084801 82 216 0.0 0.0 0.00 0.00 0.00 86 1011.1
20260507084556 82 0 0.0 0.9 0.00 0.00 0.00 85 1011.4
20260507084302 82 283 0.0 0.0 0.00 0.00 0.00 85 1011.1
20260507083802 83 142 0.0 0.0 0.00 0.00 0.00 85 1011.3
20260507083531 82 142 0.0 0.0 0.00 0.00 0.00 85 1011.3
20260507083047 82 0 0.0 0.0 0.00 0.00 0.00 85 1011.7
20260507083018 82 142 0.0 0.0 0.00 0.00 0.00 85 1011.7
20260507082255 83 142 0.0 0.0 0.00 0.00 0.00 85 1011.7
20260507081748 83 142 0.0 0.0 0.00 0.00 0.00 85 1011.7
20260507081543 82 0 0.0 0.0 0.00 0.00 0.00 84 1011.9
20260507081248 83 142 0.0 0.0 0.00 0.00 0.00 85 1011.8
20260507080741 83 142 0.0 0.0 0.00 0.00 0.00 85 1011.7
20260507080239 83 142 0.0 0.0 0.00 0.00 0.00 85 1011.7
20260507080054 82 0 0.0 0.0 0.00 0.00 0.00 84 1011.9
20260507075735 83 142 0.0 0.0 0.00 0.00 0.00 85 1011.8
20260507075235 83 142 0.0 0.0 0.00 0.00 0.00 85 1012.0
20260507074735 83 142 0.0 0.0 0.00 0.00 0.00 85 1011.9
20260507074548 82 0 0.0 0.0 0.00 0.00 0.00 84 1012.1
20260507074512 83 142 0.0 0.0 0.00 0.00 0.00 85 1011.8
20260507074428 83 142 0.0 0.0 0.00 0.00 0.00 85 1011.8
20260507073226 83 142 0.0 0.0 0.00 0.00 0.00 85 1012.0
20260507073044 82 0 0.0 0.0 0.00 0.00 0.00 84 1012.2
20260507072726 83 142 0.0 0.0 0.00 0.00 0.00 85 1011.8
20260507072445 83 142 0.0 0.0 0.00 0.00 0.00 85 1011.8
20260507071719 83 142 0.0 0.0 0.00 0.00 0.00 84 1011.6
20260507071546 82 0 0.0 0.0 0.00 0.00 0.00 84 1011.7
20260507071204 83 142 0.0 0.0 0.00 0.00 0.00 84 1011.4
20260507070704 83 142 0.0 0.0 0.00 0.00 0.00 84 1011.4
20260507070203 83 142 0.0 0.0 0.00 0.00 0.00 84 1011.7
20260507070103 82 0 0.0 0.0 0.00 0.00 0.00 84 1011.9
20260507065704 83 142 0.0 0.0 0.00 0.00 0.00 84 1011.8
20260507065203 83 142 0.0 0.0 0.00 0.00 0.00 84 1011.7
20260507064702 83 142 0.0 0.0 0.00 0.00 0.00 85 1011.7
20260507064602 82 0 0.0 0.0 0.00 0.00 0.00 84 1011.9
20260507064203 83 142 0.0 0.0 0.00 0.00 0.00 85 1011.7
20260507063703 83 142 0.0 0.0 0.00 0.00 0.00 85 1011.8
20260507063418 83 142 0.0 0.0 0.00 0.00 0.00 85 1011.8
20260507063055 82 0 0.0 0.0 0.00 0.00 0.00 84 1012.1
20260507062650 83 142 0.0 0.0 0.00 0.00 0.00 85 1011.8
20260507062144 83 142 0.0 0.0 0.00 0.00 0.00 84 1011.6
20260507061638 83 142 0.0 0.0 0.00 0.00 0.00 84 1011.8
20260507061551 82 0 0.0 0.0 0.00 0.00 0.00 83 1012.0
20260507061138 83 142 0.0 0.0 0.00 0.00 0.00 84 1011.8
20260507060939 83 142 0.0 1.7 0.00 0.00 0.00 84 1011.8
20260507060137 83 143 0.0 1.7 0.00 0.00 0.00 83 1011.8
20260507060051 82 0 0.0 0.0 0.00 0.00 0.00 83 1012.0
20260507055633 83 311 0.0 0.0 0.00 0.00 0.00 83 1011.9
20260507055132 83 304 0.0 0.0 0.00 0.00 0.00 83 1011.9
20260507054632 83 304 0.0 0.0 0.00 0.00 0.00 83 1012.0
20260507054551 83 0 0.0 0.0 0.00 0.00 0.00 83 1012.2
20260507054130 83 304 0.0 0.9 0.00 0.00 0.00 83 1012.1
20260507053631 83 304 0.0 0.9 0.00 0.00 0.00 84 1012.0
20260507053130 83 89 0.0 0.0 0.00 0.00 0.00 83 1011.8
20260507053047 82 0 0.0 0.0 0.00 0.00 0.00 83 1012.0
20260507052630 83 89 0.0 0.0 0.00 0.00 0.00 83 1012.0
20260507052130 83 89 0.0 1.7 0.00 0.00 0.00 83 1011.9
20260507052116 83 89 0.0 1.7 0.00 0.00 0.00 83 1012.1
20260507051549 83 0 0.0 1.7 0.00 0.00 0.00 83 1012.2
20260507051129 83 203 0.0 0.9 0.00 0.00 0.00 84 1012.0
20260507050630 83 186 0.0 0.9 0.00 0.00 0.00 83 1011.9
20260507050130 83 308 0.0 1.7 0.00 0.00 0.00 83 1011.9
20260507050104 83 0 0.0 1.7 0.00 0.00 0.00 83 1012.0
20260507045630 83 307 0.0 1.7 0.00 0.00 0.00 84 1011.7
20260507045130 83 190 0.0 1.7 0.00 0.00 0.00 83 1011.7
20260507045111 83 231 0.0 1.7 0.00 0.00 0.00 83 1011.7
20260507044554 83 0 0.0 1.7 0.00 0.00 0.00 83 1011.9
20260507044129 83 266 0.0 0.0 0.00 0.00 0.00 83 1011.7
20260507043631 83 266 0.0 0.9 0.00 0.00 0.00 83 1011.7
20260507043132 83 266 0.0 0.9 0.00 0.00 0.00 83 1011.7
20260507043050 83 0 0.0 1.7 0.00 0.00 0.00 83 1011.8
20260507042631 83 237 0.0 1.7 0.00 0.00 0.00 83 1011.6
20260507042131 83 237 0.0 1.7 0.00 0.00 0.00 83 1011.4
20260507041632 83 323 0.0 0.9 0.00 0.00 0.00 83 1011.3
20260507041552 83 0 0.0 1.7 0.00 0.00 0.00 82 1011.6
20260507041129 83 131 0.0 3.5 0.00 0.00 0.00 83 1011.4
20260507040631 83 123 0.0 5.2 0.00 0.00 0.00 83 1011.3
20260507040130 84 192 0.9 5.2 0.00 0.00 0.00 82 1011.2
20260507040053 83 0 0.0 3.5 0.00 0.00 0.00 82 1011.4
20260507035630 84 77 0.9 3.5 0.00 0.00 0.00 82 1011.1
20260507035418 84 159 0.0 5.2 0.00 0.00 0.00 82 1011.1
20260507034629 84 200 0.9 5.2 0.00 0.00 0.00 81 1010.9
20260507034546 84 316 0.0 1.7 0.00 0.00 0.00 81 1011.3
20260507034130 84 349 0.0 3.5 0.00 0.00 0.00 81 1010.9
20260507033630 84 232 0.0 3.5 0.00 0.00 0.00 81 1010.8
20260507033131 85 109 0.0 1.7 0.00 0.00 0.00 80 1010.7
20260507033049 84 0 0.0 3.5 0.00 0.00 0.00 80 1011.1
20260507032630 85 59 0.0 3.5 0.00 0.00 0.00 80 1010.7
20260507032130 85 101 0.9 4.3 0.00 0.00 0.00 80 1010.8
20260507031630 85 321 0.9 5.2 0.00 0.00 0.00 79 1010.7
20260507031553 85 0 0.0 4.3 0.00 0.00 0.00 79 1010.9
20260507031129 85 78 0.9 5.2 0.00 0.00 0.00 79 1010.6
20260507030630 85 130 1.7 7.0 0.00 0.00 0.00 79 1010.5
20260507030131 86 276 0.9 7.0 0.00 0.00 0.00 78 1010.4
20260507030050 85 0 0.9 7.0 0.00 0.00 0.00 78 1010.7
20260507025900 86 35 0.9 5.2 0.00 0.00 0.00 78 1010.2
20260507025130 86 126 1.7 4.3 0.00 0.00 0.00 77 1010.2
20260507024630 86 154 0.9 7.0 0.00 0.00 0.00 77 1010.0
20260507024550 86 0 0.0 7.0 0.00 0.00 0.00 76 1010.2
20260507024130 86 276 0.9 8.7 0.00 0.00 0.00 76 1009.9
20260507023632 87 159 0.0 8.7 0.00 0.00 0.00 76 1009.8
20260507023131 87 95 0.0 7.8 0.00 0.00 0.00 75 1009.7
20260507023048 87 224 1.7 7.8 0.00 0.00 0.00 75 1009.9
20260507022630 87 52 0.9 7.8 0.00 0.00 0.00 75 1009.4
20260507022130 87 79 0.9 7.8 0.00 0.00 0.00 74 1009.2
20260507021630 88 346 1.7 6.1 0.00 0.00 0.00 73 1009.2
20260507021557 87 226 0.0 5.2 0.00 0.00 0.00 73 1009.5
20260507021354 88 308 0.9 5.2 0.00 0.00 0.00 73 1009.1
20260507020852 88 165 0.9 7.0 0.00 0.00 0.00 72 1008.9
20260507020131 88 157 1.7 7.0 0.00 0.00 0.00 72 1008.9
20260507020048 88 231 0.0 6.1 0.00 0.00 0.00 71 1009.2
20260507015630 89 302 0.0 5.2 0.00 0.00 0.00 71 1008.8
20260507015130 89 275 0.9 5.2 0.00 0.00 0.00 70 1008.7
20260507014629 90 238 0.0 7.0 0.00 0.00 0.00 69 1008.6
20260507014547 89 120 0.9 7.0 0.00 0.00 0.00 69 1008.8
20260507014130 90 27 0.9 7.0 0.00 0.00 0.00 69 1008.4
20260507013630 90 281 0.9 7.8 0.00 0.00 0.00 69 1008.3
20260507013132 90 181 2.6 7.8 0.00 0.00 0.00 69 1008.2
20260507013050 90 338 3.5 8.7 0.00 0.00 0.00 69 1008.4
20260507012631 90 160 1.7 7.0 0.00 0.00 0.00 71 1008.0
20260507012131 90 51 0.0 0.9 0.00 0.00 0.00 72 1008.0
20260507011631 90 174 0.0 3.5 0.00 0.00 0.00 71 1007.8
20260507011550 90 0 0.0 4.3 0.00 0.00 0.00 71 1008.0
20260507011132 91 174 0.0 4.3 0.00 0.00 0.00 71 1007.6
20260507010630 91 32 0.9 5.2 0.00 0.00 0.00 71 1007.6
20260507010130 91 203 0.0 5.2 0.00 0.00 0.00 71 1007.5
20260507010050 91 0 0.0 4.3 0.00 0.00 0.00 70 1007.6
20260507005900 91 52 0.9 3.5 0.00 0.00 0.00 70 1007.4
20260507005354 92 232 0.0 6.1 0.00 0.00 0.00 70 1007.3
20260507004630 92 277 0.9 6.1 0.00 0.00 0.00 69 1007.3
20260507004550 92 117 0.9 6.1 0.00 0.00 0.00 69 1007.3
20260507004129 92 96 0.9 5.2 0.00 0.00 0.00 68 1007.0
20260507003629 93 52 1.7 5.2 0.00 0.00 0.00 67 1007.0
20260507003131 94 10 0.0 3.5 0.00 0.00 0.00 67 1007.0
20260507003049 93 0 0.0 8.7 0.00 0.00 0.00 66 1007.2
20260507002630 94 237 0.0 6.1 0.00 0.00 0.00 66 1006.9
20260507002130 95 319 0.9 6.1 0.00 0.00 0.00 65 1006.7
20260507001630 96 99 0.9 5.2 0.00 0.00 0.00 63 1006.7
20260507001551 96 195 0.0 3.5 0.00 0.00 0.00 62 1007.0
20260507001130 97 171 0.9 2.6 0.00 0.00 0.00 59 1006.5
20260507000852 98 273 0.0 0.9 0.00 0.00 0.00 56 1006.5
20260507000420 98 215 0.0 0.0 0.00 0.00 0.00 55 1006.4
20260507000054 97 0 0.0 0.9 0.00 0.00 0.00 54 1006.7
20260506235621 98 252 0.0 0.0 0.00 0.00 0.00 54 1006.3
20260506235121 98 172 0.0 0.9 0.00 0.00 0.00 54 1006.3
20260506234619 99 172 0.0 0.9 0.00 0.00 0.00 53 1006.3
20260506234607 98 0 0.0 0.9 0.00 0.00 0.00 52 1006.5
20260506234120 99 165 0.0 0.0 0.00 0.00 0.00 53 1006.2
20260506233618 99 165 0.0 0.0 0.00 0.00 0.00 53 1006.2
20260506233116 100 165 0.0 0.0 0.00 0.00 0.00 53 1006.2
20260506233047 99 0 0.0 0.0 0.00 0.00 0.00 52 1006.5
20260506232617 99 165 0.0 0.0 0.00 0.00 0.00 53 1006.3
20260506232339 100 230 0.0 0.0 0.00 0.00 0.00 52 1006.1
20260506231611 101 230 0.0 0.0 0.00 0.00 0.00 51 1006.0
20260506231550 100 0 0.0 0.0 0.00 0.00 0.00 50 1006.2
20260506231111 101 230 0.0 0.0 0.00 0.00 0.00 52 1006.0
20260506230602 101 230 0.0 0.0 0.00 0.00 0.00 52 1005.9
20260506230103 100 230 0.0 1.7 0.00 0.00 0.00 52 1005.9
20260506230057 100 0 0.0 0.9 0.00 0.00 0.00 52 1006.1
20260506225602 100 230 0.0 1.7 0.00 0.00 0.00 53 1005.8
20260506225102 100 283 0.0 0.9 0.00 0.00 0.00 52 1005.8
20260506224602 100 58 0.0 0.0 0.00 0.00 0.00 52 1005.9
20260506224550 100 0 0.0 0.9 0.00 0.00 0.00 52 1006.1
20260506224102 100 58 0.0 0.0 0.00 0.00 0.00 53 1006.0
20260506223601 100 245 0.0 0.0 0.00 0.00 0.00 52 1005.9
20260506223101 100 202 0.0 0.0 0.00 0.00 0.00 52 1005.9
20260506223058 100 0 0.0 0.0 0.00 0.00 0.00 51 1006.1
20260506222604 100 202 0.0 0.0 0.00 0.00 0.00 53 1005.9
20260506222103 101 161 0.0 0.0 0.00 0.00 0.00 50 1006.0
20260506221604 101 169 0.0 0.0 0.00 0.00 0.00 53 1006.1
20260506221551 101 0 0.0 0.0 0.00 0.00 0.00 52 1006.2
20260506221323 101 169 0.0 0.0 0.00 0.00 0.00 51 1006.1
20260506220828 101 169 0.0 0.9 0.00 0.00 0.00 52 1006.2
20260506220049 101 0 0.0 0.9 0.00 0.00 0.00 51 1006.5
20260506215601 101 79 0.0 0.9 0.00 0.00 0.00 52 1006.2
20260506215102 101 253 0.0 0.9 0.00 0.00 0.00 52 1006.2
20260506214602 101 253 0.0 0.9 0.00 0.00 0.00 52 1006.3
20260506214549 101 0 0.0 0.9 0.00 0.00 0.00 51 1006.5
20260506214101 101 244 0.0 0.9 0.00 0.00 0.00 52 1006.3
20260506214051 102 212 0.0 0.0 0.00 0.00 0.00 53 1006.3
20260506213102 101 170 0.0 0.9 0.00 0.00 0.00 52 1006.2
20260506213053 101 0 0.0 0.0 0.00 0.00 0.00 52 1006.5
20260506212604 101 170 0.0 0.9 0.00 0.00 0.00 53 1006.3
20260506212103 101 334 0.0 0.9 0.00 0.00 0.00 52 1006.4
20260506211825 101 155 0.0 0.9 0.00 0.00 0.00 51 1006.3
20260506211549 101 0 0.0 0.9 0.00 0.00 0.00 50 1006.6
20260506211116 102 142 0.0 0.9 0.00 0.00 0.00 51 1006.4
20260506210604 102 311 0.0 0.0 0.00 0.00 0.00 51 1006.4
20260506210110 101 122 0.0 0.9 0.00 0.00 0.00 52 1006.4
20260506210051 101 0 0.0 0.0 0.00 0.00 0.00 52 1006.7
20260506205604 101 122 0.0 0.9 0.00 0.00 0.00 52 1006.7
20260506205104 101 194 0.0 0.0 0.00 0.00 0.00 53 1006.7
20260506204602 100 194 0.0 0.0 0.00 0.00 0.00 52 1006.8
20260506204556 100 0 0.0 2.6 0.00 0.00 0.00 52 1007.0
20260506204321 100 105 0.0 2.6 0.00 0.00 0.00 52 1006.7
20260506203602 101 211 0.0 2.6 0.00 0.00 0.00 52 1006.9
20260506203327 101 321 0.0 0.0 0.00 0.00 0.00 55 1006.9
20260506203047 101 0 0.0 0.0 0.00 0.00 0.00 55 1007.1
20260506202604 100 321 0.0 0.0 0.00 0.00 0.00 52 1006.9
20260506202104 100 321 0.0 0.0 0.00 0.00 0.00 53 1007.0
20260506201604 100 290 0.0 0.0 0.00 0.00 0.00 52 1007.0
20260506201543 100 0 0.0 0.0 0.00 0.00 0.00 52 1007.3
20260506201334 100 152 0.0 0.0 0.00 0.00 0.00 53 1007.1
20260506200603 100 152 0.0 0.9 0.00 0.00 0.00 53 1007.1
20260506200107 99 0 0.0 0.9 0.00 0.00 0.00 55 1007.5
20260506200104 99 152 0.0 0.9 0.00 0.00 0.00 55 1007.1
20260506195603 99 139 0.0 0.9 0.00 0.00 0.00 55 1007.2
20260506195121 99 252 0.0 0.0 0.00 0.00 0.00 57 1007.3
20260506194603 99 174 0.0 0.9 0.00 0.00 0.00 54 1007.4
20260506194558 99 0 0.0 0.9 0.00 0.00 0.00 53 1007.6
20260506194103 100 174 0.0 0.9 0.00 0.00 0.00 54 1007.5
20260506193603 100 229 0.0 0.9 0.00 0.00 0.00 56 1007.5
20260506193103 100 229 0.0 0.9 0.00 0.00 0.00 54 1007.7
20260506193052 99 0 0.0 0.9 0.00 0.00 0.00 53 1008.1
20260506192824 99 187 0.0 0.0 0.00 0.00 0.00 56 1007.9
20260506192117 98 187 0.0 0.0 0.00 0.00 0.00 56 1007.8
20260506191604 98 167 0.0 0.0 0.00 0.00 0.00 57 1007.8
20260506191547 97 0 0.0 0.0 0.00 0.00 0.00 58 1008.1
20260506191117 97 167 0.0 0.0 0.00 0.00 0.00 59 1007.8
20260506190603 96 167 0.0 0.0 0.00 0.00 0.00 59 1008.0
20260506190107 96 167 0.0 0.0 0.00 0.00 0.00 60 1008.1
20260506190053 96 0 0.0 0.9 0.00 0.00 0.00 59 1008.4
20260506185602 96 167 0.0 0.9 0.00 0.00 0.00 62 1008.2
20260506185102 95 167 0.0 5.2 0.00 0.00 0.00 61 1008.2
20260506184602 94 127 0.0 5.2 0.00 0.00 0.00 64 1008.2
20260506184545 94 0 0.0 4.3 0.00 0.00 0.00 64 1008.5
20260506184102 95 311 0.0 4.3 0.00 0.00 0.00 61 1008.3
20260506183602 94 255 0.0 2.6 0.00 0.00 0.00 62 1008.3
20260506183102 94 0 0.0 2.6 0.00 0.00 0.00 62 1008.7
20260506182602 95 31 0.0 1.7 0.00 0.00 0.00 63 1008.4
20260506182104 94 212 0.0 5.2 0.00 0.00 0.00 62 1008.6
20260506181604 94 15 0.9 5.2 0.00 0.00 0.00 62 1008.7
20260506181557 94 0 0.0 5.2 0.00 0.00 0.00 62 1008.9
20260506181104 94 60 0.0 4.3 0.00 0.00 0.00 63 1008.6
20260506180603 93 39 0.9 4.3 0.00 0.00 0.00 64 1008.5
20260506180116 93 329 0.0 5.2 0.00 0.00 0.00 65 1008.7
20260506180051 92 0 0.0 5.2 0.00 0.00 0.00 64 1009.0
20260506175603 93 191 0.0 5.2 0.00 0.00 0.00 65 1008.6
20260506175105 92 233 0.0 3.5 0.00 0.00 0.00 66 1008.7
20260506174603 92 319 0.9 7.0 0.00 0.00 0.00 65 1008.8
20260506174547 91 0 0.0 6.1 0.00 0.00 0.00 65 1009.1
20260506174103 92 61 0.9 7.0 0.00 0.00 0.00 66 1008.8
20260506173823 92 335 0.0 1.7 0.00 0.00 0.00 68 1008.8
20260506173544 91 258 0.0 1.7 0.00 0.00 0.00 69 1008.9
20260506173053 91 0 0.0 0.9 0.00 0.00 0.00 69 1009.2
20260506172601 90 295 0.0 3.5 0.00 0.00 0.00 70 1008.9
20260506172102 90 295 0.0 3.5 0.00 0.00 0.00 70 1008.9
20260506171602 90 353 0.0 4.3 0.00 0.00 0.00 70 1008.9
20260506171550 90 0 0.0 4.3 0.00 0.00 0.00 69 1009.2
20260506171102 90 108 0.9 4.3 0.00 0.00 0.00 71 1008.9
20260506170602 90 184 0.0 3.5 0.00 0.00 0.00 70 1009.1
20260506170050 89 355 0.0 7.0 0.00 0.00 0.00 72 1009.4
20260506165823 89 342 0.0 7.8 0.00 0.00 0.00 73 1009.0
20260506165102 89 134 0.9 7.8 0.00 0.00 0.00 73 1009.1
20260506164602 89 266 0.9 5.2 0.00 0.00 0.00 72 1009.1
20260506164555 88 138 0.0 6.1 0.00 0.00 0.00 71 1009.5
20260506164102 89 4 0.0 3.5 0.00 0.00 0.00 73 1009.1
20260506163602 88 270 0.0 4.3 0.00 0.00 0.00 73 1009.0
20260506163102 88 317 0.0 6.1 0.00 0.00 0.00 74 1009.1
20260506163054 88 0 0.0 7.8 0.00 0.00 0.00 73 1009.4
20260506162601 87 198 0.9 6.1 0.00 0.00 0.00 75 1008.9
20260506162102 87 200 0.9 6.1 0.00 0.00 0.00 74 1009.0
20260506161616 87 184 0.9 6.1 0.00 0.00 0.00 73 1009.0
20260506161603 87 184 0.0 6.1 0.00 0.00 0.00 73 1009.3
20260506161555 87 305 0.0 6.1 0.00 0.00 0.00 74 1008.9
20260506160603 87 9 0.9 6.1 0.00 0.00 0.00 74 1008.9
20260506160116 87 220 0.0 3.5 0.00 0.00 0.00 74 1008.8
20260506160055 87 0 0.0 3.5 0.00 0.00 0.00 73 1009.2
20260506155601 87 327 0.0 3.5 0.00 0.00 0.00 74 1009.0
20260506155103 87 301 0.0 5.2 0.00 0.00 0.00 76 1008.9
20260506154603 87 208 0.0 5.2 0.00 0.00 0.00 76 1009.0
20260506154554 86 0 0.0 4.3 0.00 0.00 0.00 74 1009.3
20260506154102 87 2 0.0 5.2 0.00 0.00 0.00 75 1008.9
20260506153602 87 337 0.0 2.6 0.00 0.00 0.00 76 1008.9
20260506153334 86 227 0.9 6.1 0.00 0.00 0.00 76 1008.8
20260506153051 86 0 0.0 5.2 0.00 0.00 0.00 75 1009.0
20260506152601 87 354 0.9 6.1 0.00 0.00 0.00 75 1008.8
20260506152102 86 311 0.0 1.7 0.00 0.00 0.00 76 1008.9
20260506151604 86 283 0.0 1.7 0.00 0.00 0.00 77 1008.8
20260506151100 85 169 0.0 1.7 0.00 0.00 0.00 78 1008.9
20260506150818 85 70 0.0 5.2 0.00 0.00 0.00 78 1008.9
20260506150049 85 321 0.0 5.2 0.00 0.00 0.00 79 1009.0
20260506145536 85 60 0.0 3.5 0.00 0.00 0.00 79 1009.0
20260506145032 84 337 0.0 3.5 0.00 0.00 0.00 79 1009.1
20260506144548 84 295 0.0 3.5 0.00 0.00 0.00 79 1009.4
20260506144532 84 186 0.0 3.5 0.00 0.00 0.00 80 1009.1
20260506144020 83 91 0.0 3.5 0.00 0.00 0.00 81 1009.0
20260506143510 83 284 0.0 1.7 0.00 0.00 0.00 81 1009.2
20260506143227 82 211 0.0 1.7 0.00 0.00 0.00 83 1009.3
20260506143054 82 0 0.0 1.7 0.00 0.00 0.00 82 1009.6
20260506142505 82 10 0.0 0.9 0.00 0.00 0.00 83 1009.3
20260506142004 81 43 0.0 3.5 0.00 0.00 0.00 84 1009.4
20260506141550 81 0 0.0 2.6 0.00 0.00 0.00 83 1009.7
20260506141504 81 242 0.0 3.5 0.00 0.00 0.00 84 1009.4
20260506141227 81 256 0.0 5.2 0.00 0.00 0.00 84 1009.4
20260506140503 81 130 0.0 5.2 0.00 0.00 0.00 84 1009.4
20260506140103 80 211 0.0 1.7 0.00 0.00 0.00 83 1009.6
20260506140003 81 262 0.0 1.7 0.00 0.00 0.00 84 1009.4
20260506135502 81 156 0.0 1.7 0.00 0.00 0.00 84 1009.4
20260506135000 81 156 0.0 1.7 0.00 0.00 0.00 83 1009.3
20260506134545 80 0 0.0 6.1 0.00 0.00 0.00 83 1009.6
20260506134501 81 191 0.0 2.6 0.00 0.00 0.00 84 1009.3
20260506134001 81 191 0.0 7.0 0.00 0.00 0.00 84 1009.2
20260506133501 81 228 0.0 7.0 0.00 0.00 0.00 84 1009.3
20260506133053 80 0 0.0 2.6 0.00 0.00 0.00 84 1009.6
20260506133001 80 172 0.0 1.7 0.00 0.00 0.00 85 1009.3
20260506132501 80 241 0.0 1.7 0.00 0.00 0.00 85 1009.3
20260506132000 80 44 0.0 1.7 0.00 0.00 0.00 86 1009.3
20260506131552 80 0 0.0 2.6 0.00 0.00 0.00 85 1009.7
20260506131503 80 44 0.0 1.7 0.00 0.00 0.00 86 1009.3
20260506130958 80 160 0.0 2.6 0.00 0.00 0.00 86 1009.4
20260506130457 80 256 0.0 2.6 0.00 0.00 0.00 86 1009.2
20260506130110 79 0 0.0 0.9 0.00 0.00 0.00 86 1009.4
20260506125957 80 354 0.0 0.9 0.00 0.00 0.00 86 1009.1
20260506125451 80 354 0.0 0.9 0.00 0.00 0.00 86 1009.0
20260506124949 80 294 0.0 0.9 0.00 0.00 0.00 86 1009.0
20260506124550 79 0 0.0 2.6 0.00 0.00 0.00 86 1009.1
20260506124442 80 235 0.0 3.5 0.00 0.00 0.00 86 1008.9
20260506123935 80 235 0.0 4.3 0.00 0.00 0.00 86 1008.9
20260506123435 80 190 0.0 5.2 0.00 0.00 0.00 86 1008.8
20260506123157 80 201 0.9 4.3 0.00 0.00 0.00 86 1008.7
20260506123052 79 0 0.9 5.2 0.00 0.00 0.00 85 1008.9
20260506122433 80 323 0.0 1.7 0.00 0.00 0.00 86 1008.6
20260506121929 80 248 0.0 4.3 0.00 0.00 0.00 86 1008.5
20260506121551 79 0 0.0 3.5 0.00 0.00 0.00 86 1008.6
20260506121430 80 309 0.0 4.3 0.00 0.00 0.00 86 1008.3
20260506121149 80 139 0.0 2.6 0.00 0.00 0.00 86 1008.1
20260506120429 80 283 0.0 1.7 0.00 0.00 0.00 86 1008.0
20260506120053 79 0 0.0 1.7 0.00 0.00 0.00 86 1008.2
20260506115928 80 283 0.0 1.7 0.00 0.00 0.00 86 1007.9
20260506115428 80 351 0.0 0.0 0.00 0.00 0.00 87 1007.8
20260506114928 80 351 0.0 0.0 0.00 0.00 0.00 87 1007.8
20260506114716 80 351 0.0 0.9 0.00 0.00 0.00 87 1007.9
20260506114553 79 0 0.0 1.7 0.00 0.00 0.00 86 1008.0
20260506113929 80 351 0.0 3.5 0.00 0.00 0.00 87 1007.6
20260506113428 80 139 0.0 3.5 0.00 0.00 0.00 87 1007.6
20260506113047 79 0 0.0 2.6 0.00 0.00 0.00 86 1007.8
20260506112929 80 316 0.0 1.7 0.00 0.00 0.00 87 1007.5
20260506112429 80 90 0.0 0.0 0.00 0.00 0.00 87 1007.5
20260506111929 80 90 0.0 0.0 0.00 0.00 0.00 87 1007.4
20260506111911 80 90 0.0 0.0 0.00 0.00 0.00 87 1007.4
20260506111550 79 0 0.0 0.0 0.00 0.00 0.00 86 1007.7
20260506110930 80 43 0.0 0.0 0.00 0.00 0.00 86 1007.4
20260506110430 80 43 0.0 0.9 0.00 0.00 0.00 86 1007.4
20260506110100 79 0 0.0 0.9 0.00 0.00 0.00 86 1007.6
20260506105931 80 43 0.0 0.9 0.00 0.00 0.00 86 1007.3
20260506105430 80 158 0.0 0.9 0.00 0.00 0.00 86 1007.2
20260506104928 80 237 0.0 3.5 0.00 0.00 0.00 86 1007.1
20260506104558 79 0 0.0 2.6 0.00 0.00 0.00 86 1007.4
20260506104430 80 281 0.0 3.5 0.00 0.00 0.00 86 1007.0
20260506103929 80 139 0.0 2.6 0.00 0.00 0.00 86 1007.0
20260506103429 80 195 0.0 0.0 0.00 0.00 0.00 86 1007.0
20260506103051 79 0 0.0 0.0 0.00 0.00 0.00 85 1007.2
20260506102928 80 195 0.0 0.0 0.00 0.00 0.00 86 1006.9
20260506102653 80 195 0.0 2.6 0.00 0.00 0.00 86 1006.8
20260506101929 80 195 0.0 2.6 0.00 0.00 0.00 86 1006.8
20260506101556 80 0 0.0 3.5 0.00 0.00 0.00 85 1006.9
20260506101430 80 146 0.0 0.0 0.00 0.00 0.00 86 1006.7
20260506100929 80 157 0.0 4.3 0.00 0.00 0.00 86 1006.7
20260506100523 80 27 0.0 5.2 0.00 0.00 0.00 85 1006.5
20260506100445 80 326 0.0 4.3 0.00 0.00 0.00 85 1006.5
20260506100050 80 0 0.0 4.3 0.00 0.00 0.00 85 1007.0
20260506095429 80 27 0.0 5.2 0.00 0.00 0.00 85 1006.6
20260506095154 80 84 0.0 5.2 0.00 0.00 0.00 85 1006.5
20260506094557 80 0 0.0 6.1 0.00 0.00 0.00 84 1006.8
20260506094431 80 146 0.0 5.2 0.00 0.00 0.00 85 1006.5
20260506093923 80 316 0.9 5.2 0.00 0.00 0.00 85 1006.6
20260506093423 80 4 0.9 6.1 0.00 0.00 0.00 85 1006.6
20260506093055 80 0 0.0 6.1 0.00 0.00 0.00 84 1006.8
20260506092921 80 297 0.0 6.1 0.00 0.00 0.00 85 1006.6
20260506092420 80 299 0.0 7.0 0.00 0.00 0.00 85 1006.6
20260506091920 80 46 0.9 7.0 0.00 0.00 0.00 85 1006.6
20260506091548 80 0 0.9 7.8 0.00 0.00 0.00 85 1006.8
20260506091418 80 8 0.9 5.2 0.00 0.00 0.00 85 1006.7
20260506090917 80 124 0.9 5.2 0.00 0.00 0.00 85 1006.6